Location: Kawakawa
(35.3830°S, 174.0670°E)
Time: 20:48:30
(UTC+12:00)

Cosmos 1844 Rocket - Pass Details

Date: 24 January 2019
Orbit: 826 x 843 km, 71.0° (Epoch: 21 April)

Event Time Altitude Azimuth Distance (km) Brightness Sun altitude
Rises 22:53:39 0° 192° (SSW) 3,410 6.8 -23.2°
Reaches altitude 10° 22:56:22 10° 182° (S) 2,472 5.8 -23.6°
Maximum altitude 23:01:27 33° 118° (ESE) 1,382 3.7 -24.3°
Enters shadow 23:02:01 33° 106° (ESE) 1,400 3.6 -24.4°
